Back to catalog

PAYLOAD A DEB

AliveSSO
NORAD 39357·DEBRIS·🇨🇳 China

Launched Jul 19, 2013 from Taiyuan Satellite Launch Center

Loading…

Next Passes (next 24 hours)

TLE

FreshSource: Space-Track

Epoch: Sep 13, 2026, 22:48 UTC

1 39357U 13037J   26256.95022404  .00000405  00000-0  71210-4 0  9992
2 39357  98.0888 260.2292 0006853 210.2317 149.8496 14.72809463705345

Track PAYLOAD A DEB in real time with AllMySat

Download on the App Store